When you browse on this site, cookies collect data to enhance your experience and personalize the content and advertising you see.
Visit our Privacy Policy to learn more. By continuing to use the site, you agree to this use of cookies and data.
  • In Germany
  • List of Countries
  • For 7 days
  • Water Temperature
  • Weather Map
  • Weather Widgets
  • user-avatar
    Login

    Hourly Weather Sydney

    Today, 6 June, Saturday

    Time Temperature Precipitation Wind Pressure Humidity
    00:00 +10°C° 0 mm 2 mps 769 mmHg 63%
    01:00 +9°C° 0 mm 3 mps 768 mmHg 64%
    02:00 +9°C° 0 mm 3 mps 768 mmHg 64%
    03:00 +8°C° 0 mm 3 mps 768 mmHg 65%
    04:00 +8°C° 0 mm 3 mps 768 mmHg 66%
    05:00 +8°C° 0 mm 3 mps 768 mmHg 67%
    06:00 +7°C° 0 mm 3 mps 768 mmHg 68%
    07:00 +7°C° 0 mm 3 mps 768 mmHg 69%
    08:00 +9°C° 0 mm 3 mps 768 mmHg 63%
    09:00 +11°C° 0 mm 3 mps 768 mmHg 57%
    10:00 +15°C° 0 mm 2 mps 768 mmHg 51%
    11:00 +16°C° 0 mm 2 mps 767 mmHg 50%
    12:00 +18°C° 0 mm 1 mps 767 mmHg 49%
    13:00 +20°C° 0 mm 1 mps 766 mmHg 49%
    14:00 +19°C° 0 mm 1 mps 766 mmHg 51%
    15:00 +19°C° 0 mm 1 mps 766 mmHg 53%
    16:00 +18°C° 0 mm 1 mps 765 mmHg 55%
    17:00 +16°C° 0 mm 1 mps 766 mmHg 63%
    18:00 +15°C° 0 mm 1 mps 766 mmHg 71%
    19:00 +13°C° 0 mm 1 mps 766 mmHg 79%
    20:00 +13°C° 0 mm 1 mps 766 mmHg 81%
    21:00 +12°C° 0 mm 1 mps 766 mmHg 83%
    22:00 +12°C° 0 mm 1 mps 766 mmHg 84%
    23:00 +10°C° 0 mm 2 mps 766 mmHg 84%

    Tomorrow, 7 June, Sunday

    Time Temperature Precipitation Wind Pressure Humidity
    00:00 +10°C° 0 mm 2 mps 766 mmHg 84%
    01:00 +10°C° 0 mm 2 mps 766 mmHg 84%
    02:00 +9°C° 0 mm 2 mps 766 mmHg 83%
    03:00 +9°C° 0 mm 2 mps 766 mmHg 81%
    04:00 +9°C° 0 mm 2 mps 766 mmHg 80%
    05:00 +9°C° 0 mm 2 mps 766 mmHg 79%
    06:00 +9°C° 0 mm 2 mps 766 mmHg 78%
    07:00 +8°C° 0 mm 2 mps 766 mmHg 77%
    08:00 +10°C° 0.1 mm 2 mps 766 mmHg 70%
    09:00 +13°C° 0.1 mm 2 mps 766 mmHg 64%
    10:00 +15°C° 0.1 mm 2 mps 766 mmHg 57%
    11:00 +16°C° 0.1 mm 2 mps 766 mmHg 56%
    12:00 +17°C° 0.1 mm 2 mps 766 mmHg 55%
    13:00 +18°C° 0.1 mm 2 mps 765 mmHg 54%
    14:00 +18°C° 0.3 mm 2 mps 765 mmHg 59%
    15:00 +17°C° 0.3 mm 3 mps 765 mmHg 64%
    16:00 +16°C° 0.3 mm 3 mps 765 mmHg 68%
    17:00 +15°C° 0.3 mm 2 mps 765 mmHg 74%
    18:00 +14°C° 0.3 mm 2 mps 766 mmHg 80%
    19:00 +13°C° 0.3 mm 2 mps 766 mmHg 86%
    20:00 +13°C° 1.3 mm 2 mps 767 mmHg 87%
    21:00 +12°C° 1.3 mm 3 mps 767 mmHg 89%
    22:00 +11°C° 1.3 mm 3 mps 767 mmHg 90%
    23:00 +12°C° 7.7 mm 4 mps 767 mmHg 91%

    Day after tomorrow, 8 June, Monday

    Time Temperature Precipitation Wind Pressure Humidity
    00:00 +12°C° 7.7 mm 5 mps 767 mmHg 93%
    01:00 +11°C° 7.7 mm 7 mps 768 mmHg 95%
    02:00 +11°C° 4.6 mm 7 mps 768 mmHg 93%
    03:00 +11°C° 4.6 mm 7 mps 768 mmHg 91%
    04:00 +11°C° 4.6 mm 8 mps 768 mmHg 88%
    05:00 +11°C° 1 mm 7 mps 768 mmHg 88%
    06:00 +10°C° 1 mm 7 mps 769 mmHg 87%
    07:00 +10°C° 1 mm 7 mps 769 mmHg 86%
    08:00 +11°C° 0.5 mm 7 mps 770 mmHg 82%
    09:00 +13°C° 0.5 mm 6 mps 770 mmHg 79%
    10:00 +13°C° 0.5 mm 6 mps 770 mmHg 75%
    11:00 +14°C° 0 mm 6 mps 770 mmHg 71%
    12:00 +15°C° 0 mm 6 mps 770 mmHg 67%
    13:00 +16°C° 0 mm 6 mps 769 mmHg 63%
    14:00 +16°C° 0 mm 6 mps 770 mmHg 66%
    15:00 +16°C° 0 mm 6 mps 770 mmHg 68%
    16:00 +15°C° 0 mm 5 mps 770 mmHg 71%
    17:00 +14°C° 0.2 mm 5 mps 771 mmHg 76%
    18:00 +14°C° 0.2 mm 5 mps 771 mmHg 81%
    19:00 +13°C° 0.2 mm 5 mps 772 mmHg 86%
    20:00 +13°C° 0.2 mm 4 mps 772 mmHg 87%
    21:00 +12°C° 0.2 mm 4 mps 772 mmHg 88%
    22:00 +12°C° 0.2 mm 3 mps 773 mmHg 89%
    23:00 +12°C° 0.4 mm 3 mps 773 mmHg 89%

    9 June, Tuesday

    Time Temperature Precipitation Wind Pressure Humidity
    00:00 +12°C° 0.4 mm 3 mps 773 mmHg 89%
    01:00 +12°C° 0.4 mm 3 mps 773 mmHg 89%
    02:00 +12°C° 0.4 mm 3 mps 773 mmHg 89%
    03:00 +12°C° 0.4 mm 3 mps 772 mmHg 88%
    04:00 +13°C° 0.4 mm 2 mps 772 mmHg 88%
    05:00 +13°C° 0.2 mm 2 mps 773 mmHg 88%
    06:00 +13°C° 0.2 mm 2 mps 773 mmHg 88%
    07:00 +13°C° 0.2 mm 2 mps 774 mmHg 88%
    08:00 +14°C° 0.2 mm 2 mps 774 mmHg 86%
    09:00 +15°C° 0.2 mm 2 mps 774 mmHg 84%
    10:00 +15°C° 0.2 mm 2 mps 774 mmHg 82%
    11:00 +16°C° 0.3 mm 1 mps 773 mmHg 80%
    12:00 +18°C° 0.3 mm 1 mps 773 mmHg 78%
    13:00 +18°C° 0.3 mm 1 mps 772 mmHg 75%
    14:00 +18°C° 0.1 mm 1 mps 772 mmHg 76%
    15:00 +18°C° 0.1 mm 1 mps 772 mmHg 76%
    16:00 +18°C° 0.1 mm 1 mps 772 mmHg 76%
    17:00 +16°C° 0 mm 1 mps 772 mmHg 78%
    18:00 +15°C° 0 mm 2 mps 772 mmHg 81%
    19:00 +14°C° 0 mm 2 mps 772 mmHg 83%
    20:00 +14°C° 0 mm 2 mps 772 mmHg 85%
    21:00 +13°C° 0 mm 2 mps 772 mmHg 86%
    22:00 +13°C° 0 mm 2 mps 772 mmHg 88%
    23:00 +13°C° 0 mm 2 mps 772 mmHg 89%

    10 June, Wednesday

    Time Temperature Precipitation Wind Pressure Humidity
    00:00 +13°C° 0 mm 2 mps 772 mmHg 90%
    01:00 +12°C° 0 mm 2 mps 772 mmHg 91%
    02:00 +12°C° 0 mm 2 mps 771 mmHg 91%
    03:00 +12°C° 0 mm 2 mps 771 mmHg 91%
    04:00 +12°C° 0 mm 2 mps 771 mmHg 91%
    05:00 +12°C° 0 mm 2 mps 771 mmHg 91%
    06:00 +10°C° 0 mm 2 mps 771 mmHg 92%
    07:00 +10°C° 0 mm 2 mps 772 mmHg 92%
    08:00 +13°C° 0 mm 2 mps 771 mmHg 87%
    09:00 +14°C° 0 mm 2 mps 771 mmHg 82%
    10:00 +15°C° 0 mm 2 mps 771 mmHg 77%
    11:00 +17°C° 0 mm 2 mps 770 mmHg 73%
    12:00 +18°C° 0 mm 2 mps 769 mmHg 68%
    13:00 +19°C° 0 mm 2 mps 769 mmHg 63%
    14:00 +19°C° 0.1 mm 2 mps 768 mmHg 65%
    15:00 +19°C° 0.1 mm 2 mps 768 mmHg 67%
    16:00 +18°C° 0.1 mm 2 mps 767 mmHg 69%
    17:00 +17°C° 0.3 mm 2 mps 768 mmHg 75%
    18:00 +16°C° 0.3 mm 2 mps 768 mmHg 80%
    19:00 +15°C° 0.3 mm 2 mps 768 mmHg 86%
    20:00 +15°C° 0.1 mm 2 mps 768 mmHg 87%
    21:00 +14°C° 0.1 mm 2 mps 768 mmHg 88%
    22:00 +14°C° 0.1 mm 2 mps 768 mmHg 89%
    23:00 +13°C° 0 mm 2 mps 768 mmHg 89%

    11 June, Thursday

    Time Temperature Precipitation Wind Pressure Humidity
    00:00 +13°C° 0 mm 2 mps 768 mmHg 89%
    01:00 +12°C° 0 mm 2 mps 767 mmHg 89%
    02:00 +12°C° 0 mm 2 mps 767 mmHg 89%
    03:00 +12°C° 0 mm 2 mps 767 mmHg 89%
    04:00 +12°C° 0 mm 2 mps 766 mmHg 90%
    05:00 +10°C° 0 mm 2 mps 767 mmHg 89%
    06:00 +10°C° 0 mm 2 mps 767 mmHg 89%
    07:00 +10°C° 0 mm 2 mps 767 mmHg 89%
    08:00 +13°C° 0 mm 2 mps 767 mmHg 82%
    09:00 +14°C° 0 mm 1 mps 767 mmHg 74%
    10:00 +16°C° 0 mm 1 mps 767 mmHg 67%
    11:00 +18°C° 0 mm 1 mps 766 mmHg 62%
    12:00 +20°C° 0 mm 1 mps 766 mmHg 57%
    13:00 +21°C° 0 mm 1 mps 765 mmHg 53%
    14:00 +20°C° 0 mm 1 mps 765 mmHg 58%
    15:00 +18°C° 0 mm 2 mps 765 mmHg 63%
    16:00 +17°C° 0 mm 2 mps 765 mmHg 68%
    17:00 +17°C° 0 mm 2 mps 765 mmHg 72%
    18:00 +16°C° 0 mm 2 mps 766 mmHg 75%
    19:00 +15°C° 0 mm 2 mps 766 mmHg 79%
    20:00 +15°C° 0 mm 2 mps 766 mmHg 80%
    21:00 +14°C° 0 mm 3 mps 766 mmHg 81%
    22:00 +13°C° 0 mm 3 mps 767 mmHg 82%
    23:00 +13°C° 0 mm 3 mps 767 mmHg 81%
    Show more